Weather Roundup
Issued by NWS

Home | Current Version | Previous Version | Text Only | Print | Product List | Glossary On
Versions: 1 2 3 4 5 6 7 8 9 10 11 12 13 14 15 16 17 18 19 20 21 22 23 24 25 26 27 28 29 30 31 32 33 34 35 36 37 38 39 40 41 42 43 44 45 46 47 48 49 50
000
NZUS93 KARX 210710
HRRWXR

CURRENT HOURLY OBSERVATIONS ACROSS
MUCH OF THE UPPER MISSISSIPPI VALLEY
NATIONAL WEATHER SERVICE LA CROSSE WI
200 AM CDT TUE OCT 21 2014


...SOUTHEAST MINNESOTA...


CITY           SKY/WX    TMP DP  RH WIND       PRES   REMARKS
ROCHESTER      CLEAR     42  38  85 N5        30.10R
ROCHESTER/MAYO FAIR      44  37  77 CALM      30.11R
WINONA         CLEAR     39  37  93 CALM      30.11R
AUSTIN         CLEAR     37  36  93 CALM      30.09R
ALBERT LEA     CLEAR     39  37  93 CALM      30.09R
DODGE CENTER   CLEAR     39  36  87 CALM      30.10R
PRESTON        CLEAR     41  37  85 CALM      30.09R
OWATONNA       CLEAR     36  34  93 CALM      30.11R
FARIBAULT      CLEAR     34  32  93 CALM      30.11R
$$

...ELSEWHERE IN MINNESOTA...


CITY           SKY/WX    TMP DP  RH WIND       PRES   REMARKS
MINNEAPOLIS    CLEAR     42  39  89 CALM      30.12R
INTNL FALLS    CLOUDY    41  34  76 E7        30.15R
DULUTH         CLOUDY    44  38  79 E17       30.14R
RED WING       CLEAR     37  36  93 CALM      30.10R
REDWOOD FALLS  CLEAR     45  37  73 E7        30.09R
MANKATO        CLEAR     45  36  70 E5        30.10R
WORTHINGTON    CLEAR     37  32  81 CALM      30.09S
FAIRMONT       CLEAR     39  32  75 CALM      30.09R
$$

...SOUTHWEST WISCONSIN...


CITY           SKY/WX    TMP DP  RH WIND       PRES   REMARKS
LA CROSSE      CLEAR     41  38  89 CALM      30.09R
PRAIRIE DU CHI CLEAR     40  37  91 CALM      30.08R
BOSCOBEL       CLEAR     35  34  96 CALM      30.09R FOG
LONE ROCK      CLEAR     42  36  79 W3        30.07R
PLATTEVILLE    CLEAR     40  38  91 CALM      30.07R
FORT MC COY    CLEAR     34  33  98 CALM      30.10R
CAMP DOUGLAS   MOCLDY    43  42  99 CALM      30.08R
VIROQUA        FAIR      41  37  87 NE3       30.08R
WIS DELLS      CLOUDY    48  38  69 N3        30.07R
$$

...ELSEWHERE IN WISCONSIN...


CITY           SKY/WX    TMP DP  RH WIND       PRES   REMARKS
MILWAUKEE      CLOUDY    49  41  74 N8        30.03R
MADISON        CLOUDY    48  40  73 N5        30.06R
GREEN BAY      CLOUDY    45  38  76 N9        30.06R
EAU CLAIRE     CLEAR     37  35  92 NE6       30.10R WCI  32
BLACK RVR FLS  FAIR      30  30 100 CALM      30.09R
MEDFORD        CLOUDY    42  38  86 NE7       30.10R
WAUSAU         CLEAR     42  36  79 N8        30.08R
WIS RAPIDS     CLOUDY    47  39  74 N7        30.10R
MARSHFIELD     CLOUDY    45  39  79 NE8       30.08R
RICE LAKE      CLOUDY    45  37  73 CALM      30.13R
$$

...NORTHEAST IOWA...


CITY           SKY/WX    TMP DP  RH WIND       PRES   REMARKS
DECORAH        MOCLDY    41  39  93 CALM      30.08R
MASON CITY     CLEAR     37  36  96 NE5       30.10R WCI  33
CHARLES CITY   CLEAR     43  39  87 NE6       30.09R
OELWEIN        CLEAR     43  39  87 NE6       30.08R
$$

...ELSEWHERE IN IOWA...


CITY           SKY/WX    TMP DP  RH WIND       PRES   REMARKS
DES MOINES     CLEAR     50  41  71 N3        30.06S
IOWA CITY      CLEAR     47  41  80 CALM      30.07R
FORT DODGE     CLEAR     37  36  93 CALM      30.09R
$$

...NORTHERN ILLINOIS...


CITY           SKY/WX    TMP DP  RH WIND       PRES   REMARKS
CHICAGO-OHARE  CLOUDY    51  43  74 N6        30.01R
CHICAGO-MIDWAY CLOUDY    53  45  74 N7        30.01R
MOLINE         CLEAR     40  38  93 CALM      30.05R
ROCKFORD       CLOUDY    47  41  80 NW6       30.06R
PEORIA         CLEAR     47  42  83 CALM      30.04R
$$

NOTE: "FAIR" INDICATES FEW OR NO CLOUDS BELOW 12,000 FEET WITH NO
SIGNIFICANT WEATHER AND/OR OBSTRUCTIONS TO VISIBILITY. WIND
SPEEDS ARE IN MILES-PER-HOUR.



USA.gov is the U.S. government's official web portal to all federal, state and local government web resources and services.